Regional Weather Roundup
Issued by NWS Albany, NY

Home | Current Version | Previous Version | Graphics & Text | Print | Product List | Glossary Off
Versions: 1 2 3 4 5 6 7 8 9 10 11 12 13 14 15 16 17 18 19 20 21 22 23 24 25 26 27 28 29 30 31 32 33 34 35 36 37 38 39 40 41 42 43 44 45 46 47 48 49 50

000
ASUS41 KALY 201910
RWRALY

NEW YORK STATE HOURLY WEATHER ROUNDUP
NATIONAL WEATHER SERVICE ALBANY NY
200 PM EST TUE FEB 20 2018

NOTE: "FAIR" INDICATES FEW OR NO CLOUDS BELOW 12,000 FEET WITH NO
SIGNIFICANT WEATHER AND/OR NO OBSTRUCTIONS TO VISIBILITY.

NYZ032-033-038>043-046>054-057>066-NYZ062>081-082-084-202000-
EAST


CITY           SKY/WX    TMP DP  RH WIND       PRES   REMARKS
ALBANY         CLOUDY    59  47  64 S10       30.17F
GLENS FALLS    CLOUDY    48  44  86 S5        30.16F
POUGHKEEPSIE   FAIR      65  50  58 SW8       30.22F
MONTGOMERY     FAIR      59  50  72 SW14      30.22F
WHITE PLAINS   FAIR      63  51  65 SW6       30.26F
ISLIP          PTSUNNY   63  53  70 SW9       30.28F
NEW YORK CITY  PTSUNNY   64  52  64 SW12      30.27F
CENTRAL PARK   FAIR      63  53  70 VRB6      30.30F
$$

NYZ005>009-017-018-044>046-055-056-202000-
CENTRAL


CITY           SKY/WX    TMP DP  RH WIND       PRES   REMARKS
FULTON         CLOUDY    53  52  96 SE6       30.06F
SYRACUSE       PTSUNNY   68  58  70 S13       30.08F
ROME           CLOUDY    56  53  90 E9        30.13F
ELMIRA         FAIR      69  56  62 SW12      30.14S
BINGHAMTON     FAIR      60  51  72 SW12      30.17F
MONTICELLO     FAIR      58  50  75 CALM      30.24F
$$

NYZ026>034-041>043-087-202000-
NORTH


CITY           SKY/WX    TMP DP  RH WIND       PRES   REMARKS
WATERTOWN      CLOUDY    56  55  97 S7        30.05F
FORT DRUM      NOT AVBL
OGDENSBURG     DRIZZLE   39  39  98 CALM      30.05F
MASSENA        LGT RAIN  37  37 100 E7        30.09F WCI  32
SARANAC LAKE   CLOUDY    50  50 100 SW10      30.07R
PLATTSBURGH    CLOUDY    45  43  93 CALM      30.08S
$$

NYZ001>004-010>016-019>021-085-202000-
WEST


CITY           SKY/WX    TMP DP  RH WIND       PRES   REMARKS
NIAGARA FALLS  LGT RAIN  62  55  77 SW20G30   30.04S
BUFFALO        RAIN      60  56  86 SW22G40   30.07R FOG
DUNKIRK        RAIN      65  58  78 SW15G24   30.08R
JAMESTOWN        N/A    N/A N/A N/A MISG        N/A
WELLSVILLE     PTSUNNY   68  55  63 SW13G26   30.16S
ROCHESTER      LGT RAIN  69  59  70 W9G18     30.04S
PENN YAN       CLOUDY    66  52  60 S13       30.10F
$$

             KEY
       WCI = WIND CHILL INDEX
       VSB = VISIBILITY
       HX  = HEAT INDEX
$$



USA.gov is the U.S. government's official web portal to all federal, state and local government web resources and services.